Flag for Canada Weather past 2 weeks in Port Coquitlam, British Columbia, Canada

Now
46 °F

Cool.


Feels Like: 40 °F
Forecast: 46 / 51 °F
Wind: 12 mph from Northeast

Location: P. Meadows Coastal Station

Current Time: Mar 29, 2015 at 2:32:12 PM

Latest Report: Mar 29, 2015 at 2:00 PM


Visibility: N/A

Pressure: 30.20 "Hg

Humidity: 94%

Dew point: 44 °F

Location of Port CoquitlamLocation

Historic Weather in Port Coquitlam — Graph

°F

Port Coquitlam temperature yesterday

Maximum temperature yesterday: 58 °F (at 2:00 PM)
Minimum temperature yesterday: 49 °F (at 11:00 PM)
Average temperature yesterday: 52 °F

Past Weeks' High & Low Weather Summary

 TemperatureHumidityPressure
High64 °F (Mar 27, 3:00 PM)100% (Mar 19, 7:00 AM)30.31 "Hg (Mar 19, 7:00 AM)
Low38 °F (Mar 17, 2:00 AM)30% (Mar 16, 5:00 PM)29.74 "Hg (Mar 15, 3:00 PM)
Average49 °F85%30.07 "Hg
* Reported Mar 14 1:00 PM — Mar 29 1:00 PM, Port Coquitlam, Weather by CustomWeather, © 2015

Note: Actual official high and low records may vary slightly from our data, if they occured in-between our weather recording intervals... More about our weather records

Advertising

Port Coquitlam weather history for previous 24 hours

 ConditionsComfort  
Time TempWeatherWind HumidityBarometerVisibility
1:00 PM
Sun, Mar 29
46 °FCool.9 mph96%30.20 "HgN/A
12:00 PM46 °FCool.9 mph95%30.20 "HgN/A
11:00 AM46 °FCool.9 mph95%30.21 "HgN/A
10:00 AM46 °FCool.9 mph95%30.20 "HgN/A
9:00 AM46 °FCool.5 mph95%30.19 "HgN/A
8:00 AM45 °FCool.6 mph88%30.20 "HgN/A
7:00 AM45 °FCool.9 mph94%30.21 "HgN/A
6:00 AM46 °FCool.8 mph91%30.22 "HgN/A
5:00 AM46 °FCool.12 mph89%30.23 "HgN/A
4:00 AM47 °FCool.10 mph89%30.24 "HgN/A
3:00 AM48 °FCool.9 mph94%30.26 "HgN/A
2:00 AM48 °FCool.7 mph95%30.27 "HgN/A
1:00 AM48 °FCool.7 mph94%30.28 "HgN/A
12:00 AM49 °FCool.2 mph94%30.30 "HgN/A
11:00 PM
Sat, Mar 28
49 °FCool.3 mph96%30.29 "HgN/A
10:00 PM49 °FCool.2 mph87%30.30 "HgN/A
9:00 PM49 °FCool.7 mph87%30.29 "HgN/A
8:00 PM51 °FCool.5 mph90%30.29 "HgN/A
7:00 PM53 °FCool.No wind76%30.29 "HgN/A
6:00 PM53 °FCool.2 mph70%30.29 "HgN/A
5:00 PM56 °FCool.3 mph61%30.29 "HgN/A
4:00 PM57 °FRefreshingly cool.5 mph58%30.29 "HgN/A
3:00 PM58 °FRefreshingly cool.5 mph57%30.29 "HgN/A
2:00 PM58 °FRefreshingly cool.6 mph59%30.30 "HgN/A
Weather by CustomWeather, © 2015

See weather overviewHow to use our weather pages